Temp
12 11 12 11 11 11 10 9 8 7 7 6 6 5 5 5 5 5 5 4 4 4
10 11 11 11 11 10 9 8 7 7 6 6 5 5 5 5 5 4 4 4 4 3
10 10 10 10 10 9 8 7 6 6 6 5 5 5 4 4 4 4 4 3 3 3
9 10 10 9 9 8 7 6 6 6 5 5 5 4 4 4 4 3 3 3 2 2
9 9 9 8 8 7 6 6 5 5 5 4 4 3 4 4 3 3 2 2 1 1
9 9 8 7 7 6 5 5 4 4 4 4 3 3 3 3 3 2 2 1 1 0
8 8 7 6 5 5 5 4 4 3 3 2 2 2 2 2 2 2 1 1 -0 -0
7 6 5 5 4 4 4 3 3 2 2 1 1 1 1 2 2 1 1 0 0 -0
5 5 4 4 3 3 2 2 2 2 1 1 1 0 -1 -0 1 1 0 0 -0 -0
5 4 3 3 3 3 2 2 1 1 0 1 0 -1 -1 -1 -0 -0 -0 -1 -1 -1
4 3 3 3 2 2 2 1 1 0 -0 -0 -1 -1 -2 -2 -1 -0 -1 -1 -1 -1
3 3 3 2 2 1 1 1 0 -0 -1 -1 -0 -2 -3 -2 -1 -0 -1 -1 -1 -2
3 3 2 1 1 0 0 0 -0 -1 -1 -2 -2 -2 -3 -3 -1 -1 -1 -1 -1 -1
2 2 1 0 -0 -0 -0 -0 -0 -1 -1 -2 -2 -2 -3 -3 -2 -2 -2 -1 -2 -2
Height
745 751 760 766 772 779 784 789 792 794 799 800 800 800 800 801 802 802 802 801 800 798
744 750 758 765 772 777 783 787 791 794 798 800 800 799 799 800 800 799 799 799 798 796
742 750 756 764 770 776 782 786 789 794 797 798 798 798 798 798 798 797 796 796 795 794
743 751 759 765 771 776 781 786 789 794 796 797 797 796 797 796 795 794 794 793 792 790
745 751 759 766 772 778 782 786 790 793 794 795 795 795 794 793 792 792 791 790 788 786
746 753 760 767 773 779 784 787 790 792 793 793 794 793 792 791 790 790 788 787 785 783
747 755 762 768 774 779 784 788 790 791 791 792 792 791 790 789 788 787 785 784 782 780
751 757 764 769 775 780 784 788 790 790 790 790 790 790 788 787 785 784 782 781 778 775
752 758 767 771 776 780 784 787 789 790 789 789 788 786 785 783 782 781 779 776 773 770
755 762 768 772 777 781 785 787 789 788 788 787 786 783 782 781 779 777 775 772 769 766
759 765 770 775 778 782 785 788 788 787 786 785 783 780 780 779 776 773 771 769 766 763
762 767 772 776 779 783 786 787 786 785 784 782 781 778 777 775 772 769 767 765 761 758
764 769 773 776 780 783 785 785 784 783 781 779 778 777 774 772 769 766 763 760 756 753
767 771 775 778 781 783 784 783 782 780 779 778 776 774 771 769 767 764 760 756 752 748
Wind_Speed
33 31 28 28 24 20 18 15 14 12 9 8 7 5 4 2 1 2 3 5 7 9
29 29 27 24 22 20 17 16 14 12 9 7 6 4 2 1 2 3 4 6 8 10
31 28 28 24 21 19 17 16 14 12 9 7 5 2 1 1 2 4 5 7 9 11
28 28 24 22 20 18 17 15 13 11 8 6 3 1 1 2 3 5 7 8 10 12
29 27 23 21 19 17 16 13 12 10 7 5 2 1 2 4 5 7 9 10 11 13
26 24 22 21 19 16 15 12 10 8 6 4 1 1 3 5 7 9 10 11 13 15
25 23 22 20 18 16 13 11 8 6 4 2 1 2 4 6 9 10 12 13 14 16
23 22 21 20 17 15 12 9 7 5 2 1 2 3 6 8 10 12 14 15 16 16
24 22 19 18 16 14 11 8 5 3 0 2 3 6 6 9 12 13 14 16 17 18
22 21 18 17 15 12 9 6 4 1 1 3 4 6 8 10 12 13 15 16 18 20
21 20 17 15 13 10 7 4 2 0 2 4 5 8 10 11 12 13 15 17 19 20
19 19 16 14 11 7 5 3 1 1 3 5 6 9 10 12 13 14 16 18 19 19
17 17 15 12 9 6 4 2 1 2 4 6 7 9 11 12 13 16 18 19 20 20
16 14 13 10 7 5 2 0 2 4 6 6 7 9 12 12 14 16 20 20 22 21
Wind_Direction
171 158 165 163 163 161 159 157 153 147 148 145 142 136 131 131 217 272 285 287 292 294
160 157 160 158 157 154 154 151 149 148 152 149 145 140 141 191 264 273 287 295 295 295
164 159 152 153 152 151 149 149 148 151 155 153 147 149 153 258 264 290 303 303 300 298
152 151 149 148 147 148 147 148 149 154 154 153 152 162 233 276 294 308 309 303 299 302
149 145 145 144 145 146 144 145 148 149 149 147 155 205 287 301 306 308 302 301 305 305
145 144 142 142 142 142 142 143 143 145 145 144 175 279 307 306 303 299 297 299 303 305
142 141 140 140 139 139 140 141 143 142 139 147 307 310 316 307 305 303 299 296 296 299
134 135 136 135 136 134 135 140 143 141 138 6 334 330 318 316 309 302 299 295 297 297
133 133 134 133 134 134 136 140 143 147 134 342 339 321 331 322 309 300 297 299 303 304
132 132 133 133 135 135 139 145 153 130 359 333 331 337 333 320 309 299 301 304 306 306
132 131 134 135 134 135 141 154 158 8 337 330 326 336 329 317 309 303 303 304 306 306
135 135 136 135 134 137 149 154 164 314 330 333 325 323 325 324 316 307 305 309 309 309
133 134 135 132 137 143 143 152 263 318 321 320 319 320 330 330 317 313 314 311 310 308
130 127 128 129 132 137 140 247 321 326 319 310 318 327 330 327 322 316 313 314 311 311